Flag for Indonesia Weather past 2 weeks in Medan, North Sumatra, Indonesia

Now
81 °F

Passing clouds.


Feels Like: 85 °F
Forecast: 79 / 90 °F
Wind: No wind

Location: Medan / Polonia

Current Time: Aug 1, 2014 at 9:45:56 AM

Latest Report: Aug 1, 2014 at 9:00 AM


Visibility: 4 mi

Pressure: 29.80 "Hg

Humidity: 79%

Dew point: 73 °F

Location of MedanLocation

Historic Weather in Medan — Graph

°F

Medan temperature yesterday

Maximum temperature yesterday: 90 °F (at 3:00 PM)
Minimum temperature yesterday: 77 °F (at 5:30 AM)
Average temperature yesterday: 83 °F

Past Weeks' High & Low Weather Summary

 TemperatureHumidityPressure
High93 °F (Jul 18, 12:00 PM)100% (Jul 18, 1:00 AM)29.89 "Hg (Jul 18, 1:00 AM)
Low73 °F (Jul 19, 5:30 AM)36% (Jul 19, 12:30 PM)29.68 "Hg (Jul 18, 3:00 PM)
Average83 °F77%29.79 "Hg
* Reported Jul 17 8:00 AM — Aug 1 8:30 AM, Medan, Weather by CustomWeather, © 2014

Note: Actual official high and low records may vary slightly from our data, if they occured in-between our weather recording intervals... More about our weather records

Advertising

Medan weather history for previous 24 hours

 ConditionsComfort  
Time TempWeatherWind HumidityBarometerVisibility
8:30 AM
Aug 1
79 °FPassing clouds.No wind84%29.80 "Hg4 mi
8:00 AM77 °FPassing clouds.No wind89%29.80 "Hg4 mi
7:30 AM77 °FHaze.No wind89%29.80 "Hg3 mi
6:30 AM77 °FHaze.3 mph89%29.80 "Hg3 mi
6:00 AM75 °FHaze.2 mph94%29.77 "Hg2 mi
5:30 AM77 °FHaze.7 mph89%29.77 "Hg2 mi
5:00 AM77 °FHaze.7 mph89%29.77 "Hg2 mi
4:30 AM77 °FHaze.2 mph89%29.77 "Hg2 mi
4:00 AM77 °FHaze.No wind89%29.77 "Hg2 mi
2:00 AM77 °FPassing clouds.No wind83%29.80 "Hg3 mi
1:00 AM75 °FPassing clouds.5 mph94%29.80 "Hg3 mi
12:30 AM77 °FPassing clouds.5 mph89%29.83 "Hg3 mi
12:00 AM77 °FPassing clouds.8 mph89%29.83 "Hg3 mi
11:30 PM
Jul 31
77 °FPassing clouds.9 mph89%29.86 "Hg3 mi
11:00 PM79 °FPassing clouds.10 mph79%29.83 "Hg3 mi
10:30 PM79 °FPassing clouds.9 mph79%29.83 "Hg3 mi
10:00 PM81 °FPassing clouds.10 mph84%29.83 "Hg3 mi
9:30 PM84 °FPassing clouds.2 mph79%29.80 "Hg2 mi
9:00 PM84 °FPassing clouds.3 mph79%29.80 "Hg2 mi
8:30 PM84 °FPassing clouds.3 mph79%29.77 "Hg2 mi
8:00 PM84 °FPassing clouds.6 mph79%29.77 "Hg2 mi
7:30 PM84 °FPassing clouds.No wind79%29.77 "Hg2 mi
7:00 PM84 °FPassing clouds.5 mph79%29.77 "Hg3 mi
6:30 PM84 °FPassing clouds.7 mph79%29.74 "Hg3 mi
6:00 PM86 °FPassing clouds.9 mph75%29.74 "Hg3 mi
5:30 PM86 °FPassing clouds.9 mph75%29.74 "Hg3 mi
5:00 PM86 °FScattered clouds.8 mph75%29.74 "Hg3 mi
4:30 PM88 °FScattered clouds.7 mph66%29.71 "Hg3 mi
4:00 PM88 °FScattered clouds.9 mph70%29.71 "Hg3 mi
3:30 PM88 °FScattered clouds.9 mph70%29.74 "Hg3 mi
3:00 PM90 °FScattered clouds.6 mph67%29.74 "Hg3 mi
2:30 PM88 °FScattered clouds.8 mph70%29.74 "Hg4 mi
2:00 PM84 °FScattered clouds.6 mph70%29.77 "Hg4 mi
1:30 PM88 °FScattered clouds.6 mph70%29.80 "Hg3 mi
1:00 PM88 °FPartly sunny.6 mph70%29.80 "Hg3 mi
12:30 PM88 °FPartly sunny.9 mph70%29.83 "Hg3 mi
12:00 PM86 °FPartly sunny.7 mph79%29.83 "Hg3 mi
11:30 AM86 °FPartly sunny.6 mph75%29.83 "Hg3 mi
11:00 AM86 °FPassing clouds.No wind75%29.83 "Hg3 mi
10:30 AM86 °FScattered clouds.No wind66%29.83 "Hg3 mi
10:00 AM84 °FScattered clouds.No wind74%29.83 "Hg3 mi
9:30 AM84 °FScattered clouds.No wind70%29.83 "Hg3 mi
9:00 AM84 °FScattered clouds.No wind74%29.83 "Hg3 mi
Weather by CustomWeather, © 2014

See weather overviewHow to use our weather pages